Location: Burbank
(38.7788°N, 114.0429°W)
Time: 21:31:14
(UTC+00:00)

S-56A Canister/Altair - Pass Details

Date: 13 May 2026
Orbit: 632 x 2484 km, 38.9° (Epoch: 8 June)

Event Time Altitude Azimuth Distance (km) Brightness Sun altitude
Rises 05:28:09 0° 254° (WSW) 2,925 10.7 -25.8°
Reaches altitude 10° 05:30:23 10° 253° (WSW) 2,004 9.8 -26.1°
Enters shadow 05:32:32 29° 249° (WSW) 1,177 8.5 -26.3°
Maximum altitude 05:34:48 77° 167° (SSE) 689 - -26.5°
Drops below altitude 10° 05:40:00 10° 82° (E) 2,354 - -27.0°
Sets 05:42:49 0° 81° (E) 3,491 - -27.3°
